FW3337 Weather Reports


Display with metric or nautical units.
time (UTC)temp
F
wind
direction
speed
MPH
gust
MPH
rain 1hr
in
rain 24hr
in
rain mn
in
humidity
%
barometer
mb
20260831073100 65 260 0.0 0.0 0.00 0.07 0.00 97 1018.4
20260831071558 65 260 0.0 0.0 0.00 0.07 0.00 97 1018.4
20260831064559 66 260 0.0 0.0 0.00 0.07 0.00 97 1018.6
20260831063056 66 260 0.0 1.0 0.00 0.07 0.00 97 1018.5
20260831061555 66 260 0.0 0.0 0.00 0.07 0.00 97 1018.5
20260831060054 66 260 0.0 0.0 0.00 0.07 0.00 97 1018.5
20260831054552 66 260 0.0 0.0 0.00 0.07 0.00 97 1018.5
20260831053052 67 260 0.0 0.0 0.00 0.07 0.00 97 1018.6
20260831051549 67 260 0.0 0.0 0.00 0.07 0.00 97 1018.6
20260831050049 67 260 0.0 0.0 0.00 0.07 0.00 97 1018.4
20260831044555 67 260 0.0 2.0 0.00 0.07 0.00 97 1018.7
20260831043046 68 260 0.0 0.0 0.00 0.07 0.00 96 1018.6
20260831041551 68 260 0.0 0.0 0.00 0.07 0.00 96 1018.4
20260831040039 69 260 0.0 1.0 0.00 0.07 0.00 96 1018.1
20260831034539 69 260 0.0 0.0 0.00 0.07 0.07 96 1018.3
20260831033040 69 260 0.0 0.0 0.00 0.07 0.07 96 1018.4
20260831031540 70 260 0.0 0.0 0.00 0.07 0.07 96 1018.5
20260831030036 70 260 0.0 0.0 0.01 0.07 0.07 96 1018.4
20260831024541 70 260 0.0 1.0 0.01 0.07 0.07 96 1018.7
20260831023036 70 260 0.0 0.0 0.01 0.07 0.07 96 1018.7
20260831021537 71 260 0.0 0.0 0.01 0.07 0.07 96 1018.8
20260831020035 71 260 0.0 0.0 0.03 0.06 0.06 96 1018.7
20260831014534 71 260 0.0 0.0 0.03 0.06 0.06 96 1018.8
20260831013035 71 260 0.0 0.0 0.04 0.06 0.06 96 1018.6
20260831011532 71 260 0.0 0.0 0.05 0.06 0.06 95 1018.4
20260831010038 71 260 0.0 0.0 0.02 0.03 0.03 94 1018.5
20260831004532 71 260 0.0 0.0 0.02 0.03 0.03 94 1018.2
20260831003031 72 260 0.0 0.0 0.02 0.02 0.02 94 1018.1
20260831001530 72 260 0.0 0.0 0.01 0.01 0.01 93 1017.9
20260831000030 73 260 0.0 0.0 0.01 0.01 0.01 92 1017.7
20260830234536 73 260 0.0 0.0 0.01 0.01 0.01 91 1017.5
20260830233029 74 260 0.0 0.0 0.00 0.00 0.00 89 1017.5
20260830231530 74 260 0.0 0.0 0.00 0.00 0.00 89 1017.2
20260830230027 75 260 0.0 0.0 0.00 0.00 0.00 87 1017.3
20260830224527 75 260 0.0 0.0 0.00 0.00 0.00 87 1017.3
20260830223032 75 260 0.0 0.0 0.00 0.00 0.00 87 1017.3
20260830221530 76 260 0.0 0.0 0.00 0.00 0.00 85 1017.2
20260830220024 76 260 0.0 0.0 0.00 0.00 0.00 84 1017.5
20260830214523 76 260 0.0 0.0 0.00 0.00 0.00 83 1017.3
20260830213023 77 260 0.0 2.0 0.00 0.00 0.00 81 1017.3
20260830211523 77 266 0.0 3.0 0.00 0.00 0.00 81 1017.1
20260830210020 77 214 0.0 3.0 0.00 0.00 0.00 80 1017.3
20260830204518 77 214 0.0 3.0 0.00 0.00 0.00 81 1017.4
20260830203032 77 213 2.0 4.0 0.00 0.00 0.00 81 1017.6
20260830201513 76 243 0.0 4.0 0.00 0.00 0.00 83 1017.7
20260830200010 75 286 1.0 4.0 0.00 0.00 0.00 83 1017.8
20260830194505 75 270 2.0 4.0 0.00 0.00 0.00 83 1017.9
20260830193007 75 201 1.0 5.0 0.00 0.00 0.00 84 1018.1
20260830191559 74 232 0.0 3.0 0.00 0.00 0.00 84 1018.4
20260830190055 74 261 0.0 3.0 0.00 0.00 0.00 84 1018.9
20260830184554 74 215 0.0 7.0 0.00 0.00 0.00 83 1018.9
20260830183053 74 274 0.0 3.0 0.00 0.00 0.00 83 1019.0
20260830181551 74 233 2.0 4.0 0.00 0.00 0.00 81 1019.2
20260830180052 74 293 0.0 4.0 0.00 0.00 0.00 80 1019.4
20260830174552 74 254 0.0 4.0 0.00 0.00 0.00 80 1019.5
20260830173105 74 195 2.0 7.0 0.00 0.00 0.00 78 1019.5
20260830171545 74 207 1.0 4.0 0.00 0.00 0.00 77 1019.8
20260830170045 74 239 0.0 3.0 0.00 0.00 0.00 75 1019.9
20260830164546 75 234 1.0 4.0 0.00 0.00 0.00 73 1019.9
20260830163044 75 219 1.0 6.0 0.00 0.00 0.00 71 1019.9
20260830161538 75 199 1.0 4.0 0.00 0.00 0.00 69 1019.8
20260830160035 74 231 0.0 2.0 0.00 0.00 0.00 66 1020.3
20260830154533 74 240 1.0 4.0 0.00 0.00 0.00 66 1020.8
20260830153032 74 258 0.0 2.0 0.00 0.00 0.00 65 1020.6
20260830151525 74 258 0.0 4.0 0.00 0.00 0.00 67 1020.8
20260830150026 73 156 0.0 3.0 0.00 0.00 0.00 65 1021.0
20260830144531 73 143 0.0 2.0 0.00 0.00 0.00 66 1021.3
20260830143026 72 147 0.0 3.0 0.00 0.00 0.00 70 1021.3
20260830141513 71 78 0.0 1.0 0.00 0.00 0.00 78 1021.2
20260830140009 69 78 0.0 0.0 0.00 0.00 0.00 80 1021.4
20260830134506 68 66 0.0 1.0 0.00 0.00 0.00 82 1021.3
20260830133002 66 67 0.0 1.0 0.00 0.00 0.00 87 1021.5
20260830131557 64 67 0.0 0.0 0.00 0.00 0.00 91 1021.6
20260830130054 63 67 0.0 0.0 0.00 0.00 0.00 95 1021.8
20260830124551 62 67 0.0 0.0 0.00 0.00 0.00 96 1021.8
20260830123048 61 67 0.0 0.0 0.00 0.00 0.00 98 1022.0
20260830121544 60 67 0.0 0.0 0.00 0.00 0.00 97 1021.8
20260830120043 59 67 0.0 0.0 0.00 0.00 0.00 97 1022.1
20260830114547 58 67 0.0 0.0 0.00 0.00 0.00 97 1022.3
20260830113036 57 67 0.0 0.0 0.00 0.00 0.00 97 1022.2
20260830111535 57 67 0.0 0.0 0.00 0.00 0.00 97 1022.2
20260830110039 57 67 0.0 0.0 0.00 0.00 0.00 97 1022.2
20260830104536 56 67 0.0 0.0 0.00 0.00 0.00 97 1022.0
20260830103046 56 67 0.0 0.0 0.00 0.00 0.00 97 1022.0
20260830101532 56 67 0.0 0.0 0.00 0.00 0.00 96 1022.0
20260830100035 56 67 0.0 0.0 0.00 0.00 0.00 97 1022.0
20260830094531 56 67 0.0 0.0 0.00 0.00 0.00 96 1022.1
20260830093050 56 67 0.0 0.0 0.00 0.00 0.00 97 1022.2
20260830091529 56 67 0.0 0.0 0.00 0.00 0.00 97 1022.2
20260830090029 56 67 0.0 0.0 0.00 0.00 0.00 97 1022.1
20260830084528 56 67 0.0 0.0 0.00 0.00 0.00 96 1022.2
20260830083028 56 67 0.0 0.0 0.00 0.00 0.00 97 1022.4
20260830081526 56 67 0.0 0.0 0.00 0.00 0.00 96 1022.5
20260830080028 56 67 0.0 0.0 0.00 0.00 0.00 96 1022.6
20260830074524 56 67 0.0 0.0 0.00 0.00 0.00 96 1022.6